Dumas, TX

3:35 PM CDT on May 28, 2017 (GMT -0500)
Moore County

Weather History for KDUX - October, 2012

Change the Weather History Date:

Wednesday, October 3, 2012

  Actual Average (KDHT) Record (KDHT)
Temperature  
Mean Temperature 66 °F -  
Max Temperature 82 °F 72 °F 96 °F (2000)
Min Temperature 51 °F 45 °F 37 °F (1996)
Cooling Degree Days 2    
Growing Degree Days 16 (Base 50)    
Moisture  
Dew Point 48 °F    
Average Humidity 56    
Maximum Humidity 82    
Minimum Humidity 26    
Precipitation  
Precipitation 0.00 in - - ()
Sea Level Pressure  
Sea Level Pressure 29.91 in    
Wind  
Wind Speed 11 mph (South)    
Max Wind Speed 17 mph    
Max Gust Speed 23 mph    
Visibility 8 miles    
Events      
Averages and records for this station are not official NWS values.
T = Trace of Precipitation, MM = Missing Value Source: NWS Daily Summary

Daily Weather History Graph

Daily Weather History Graph

Search for Another Location

Airport or City:

Trip Planner

Search our weather history database for the weather conditions in past years. The results will help you decide how hot, cold, wet, or windy it might be!

Date:

Astronomy

Oct. 03, 2012 Rise Set
Actual Time 7:45 AM CDT 7:28 PM CDT
Civil Twilight 7:19 AM CDT 7:53 PM CDT
Nautical Twilight 6:49 AM CDT 8:23 PM CDT
Astronomical Twilight 6:20 AM CDT 8:52 PM CDT
Moon 9:29 PM CDT (10/3) 11:02 AM CDT (10/3)
Length of Visible Light 12h 34m
Length of Day
11h 42m
Waning Gibbous, 88% of the Moon is Illuminated
Oct 3
Waning Gibbous
Oct 8
Last Quarter
Oct 15
New
Oct 21
First Quarter
Oct 29
Full

Hourly Weather History & Observations

Time (CDT) Temp. Dew Point Humidity Pressure Visibility Wind Dir Wind Speed Gust Speed Precip Events Conditions
12:15 AM 55.4 °F 46.4 °F 72% 29.95 in 10.0 mi SSE 9.2 mph - N/A   Clear
12:35 AM 55.4 °F 46.4 °F 72% 29.94 in 10.0 mi SSE 9.2 mph - N/A   Clear
12:55 AM 55.4 °F 46.4 °F 72% 29.93 in 10.0 mi SSE 10.4 mph - N/A   Clear
1:15 AM 55.4 °F 46.4 °F 72% 29.93 in 10.0 mi SSE 11.5 mph - N/A   Clear
1:35 AM 55.4 °F 46.4 °F 72% 29.93 in 10.0 mi South 11.5 mph - N/A   Clear
1:55 AM 55.4 °F 46.4 °F 72% 29.93 in 10.0 mi South 11.5 mph - N/A   Clear
2:15 AM 55.4 °F 46.4 °F 72% 29.93 in 5.0 mi South 11.5 mph - N/A   Haze
2:35 AM 55.4 °F 46.4 °F 72% 29.93 in 5.0 mi South 10.4 mph - N/A   Haze
2:55 AM 55.4 °F 46.4 °F 72% 29.93 in 5.0 mi South 10.4 mph - N/A   Haze
3:15 AM 55.4 °F 46.4 °F 72% 29.93 in 10.0 mi South 10.4 mph - N/A   Clear
3:35 AM 53.6 °F 46.4 °F 77% 29.93 in 10.0 mi South 9.2 mph - N/A   Clear
4:15 AM 53.6 °F 46.4 °F 77% 29.92 in 10.0 mi South 8.1 mph - N/A   Clear
4:35 AM 53.6 °F 46.4 °F 77% 29.91 in 10.0 mi South 6.9 mph - N/A   Clear
4:55 AM 51.8 °F 46.4 °F 82% 29.91 in 10.0 mi South 8.1 mph - N/A   Clear
5:15 AM 51.8 °F 46.4 °F 82% 29.91 in 10.0 mi South 8.1 mph - N/A   Clear
5:55 AM 51.8 °F 46.4 °F 82% 29.91 in 10.0 mi South 8.1 mph - N/A   Clear
6:15 AM 51.8 °F 46.4 °F 82% 29.92 in 10.0 mi SSW 6.9 mph - N/A   Clear
6:35 AM 53.6 °F 46.4 °F 77% 29.92 in 10.0 mi South 8.1 mph - N/A   Clear
6:55 AM 53.6 °F 46.4 °F 77% 29.93 in 10.0 mi SSW 9.2 mph - N/A   Clear
7:15 AM 53.6 °F 46.4 °F 77% 29.92 in 10.0 mi South 9.2 mph - N/A   Clear
7:35 AM 53.6 °F 46.4 °F 77% 29.92 in 10.0 mi SSW 10.4 mph - N/A   Clear
7:55 AM 53.6 °F 46.4 °F 77% 29.91 in 10.0 mi SSW 10.4 mph - N/A   Clear
8:15 AM 53.6 °F 46.4 °F 77% 29.92 in 10.0 mi South 8.1 mph - N/A   Clear
8:35 AM 55.4 °F 48.2 °F 77% 29.92 in 10.0 mi SSW 11.5 mph - N/A   Clear
8:55 AM 57.2 °F 48.2 °F 72% 29.91 in 10.0 mi SSW 10.4 mph - N/A   Clear
9:15 AM 59.0 °F 50.0 °F 72% 29.92 in 10.0 mi SSW 11.5 mph 16.1 mph N/A   Clear
9:35 AM 60.8 °F 50.0 °F 68% 29.93 in 10.0 mi SSW 11.5 mph - N/A   Clear
9:55 AM 60.8 °F 50.0 °F 68% 29.94 in 10.0 mi SW 11.5 mph - N/A   Clear
10:15 AM 62.6 °F 50.0 °F 63% 29.94 in 10.0 mi SW 10.4 mph - N/A   Clear
10:35 AM 62.6 °F 50.0 °F 63% 29.94 in 10.0 mi SW 11.5 mph - N/A   Clear
10:55 AM 64.4 °F 50.0 °F 59% 29.94 in 10.0 mi SSW 9.2 mph - N/A   Clear
11:15 AM 68.0 °F 50.0 °F 52% 29.93 in 10.0 mi SW 10.4 mph - N/A   Clear
11:35 AM 68.0 °F 50.0 °F 52% 29.93 in 10.0 mi SSW 8.1 mph - N/A   Clear
11:55 AM 69.8 °F 50.0 °F 49% 29.93 in 10.0 mi SSW 8.1 mph - N/A   Clear
12:15 PM 71.6 °F 50.0 °F 46% 29.93 in 10.0 mi South 9.2 mph - N/A   Clear
12:55 PM 73.4 °F 50.0 °F 44% 29.92 in 10.0 mi SW 9.2 mph - N/A   Clear
1:15 PM 75.2 °F 50.0 °F 41% 29.91 in 10.0 mi South 8.1 mph - N/A   Clear
1:35 PM 77.0 °F 48.2 °F 36% 29.91 in 5.0 mi SSW 11.5 mph 16.1 mph N/A   Haze
1:55 PM 78.8 °F 48.2 °F 34% 29.90 in 3.0 mi South 12.7 mph 17.3 mph N/A   Haze
2:15 PM 80.6 °F 48.2 °F 32% 29.89 in 3.0 mi South 12.7 mph 17.3 mph N/A   Haze
2:35 PM 80.6 °F 46.4 °F 30% 29.88 in 3.0 mi South 16.1 mph 20.7 mph N/A   Haze
2:55 PM 80.6 °F 46.4 °F 30% 29.88 in 7.0 mi South 17.3 mph 21.9 mph N/A   Clear
3:15 PM 80.6 °F 48.2 °F 32% 29.87 in 10.0 mi SSE 15.0 mph 21.9 mph N/A   Clear
3:35 PM 80.6 °F 46.4 °F 30% 29.87 in 10.0 mi South 13.8 mph 23.0 mph N/A   Clear
3:55 PM 82.4 °F 46.4 °F 28% 29.86 in 5.0 mi South 15.0 mph 23.0 mph N/A   Haze
4:15 PM 82.4 °F 46.4 °F 28% 29.86 in 4.0 mi South 15.0 mph - N/A   Haze
4:35 PM 82.4 °F 46.4 °F 28% 29.86 in 1.2 mi South 16.1 mph 21.9 mph N/A   Haze
4:55 PM 82.4 °F 46.4 °F 28% 29.86 in 7.0 mi South 16.1 mph 19.6 mph N/A   Clear
5:15 PM 82.4 °F 46.4 °F 28% 29.87 in 0.8 mi South 13.8 mph 19.6 mph N/A   Haze
5:35 PM 82.4 °F 44.6 °F 26% 29.87 in 2.0 mi South 13.8 mph 18.4 mph N/A   Haze
5:55 PM 82.4 °F 46.4 °F 28% 29.86 in 2.0 mi South 15.0 mph - N/A   Haze
6:15 PM 80.6 °F 44.6 °F 28% 29.87 in 1.8 mi South 16.1 mph - N/A   Haze
6:35 PM 80.6 °F 46.4 °F 30% 29.87 in 5.0 mi SSE 17.3 mph 21.9 mph N/A   Haze
6:55 PM 78.8 °F 46.4 °F 32% 29.87 in 10.0 mi SSE 16.1 mph - N/A   Clear
7:15 PM 77.0 °F 46.4 °F 34% 29.88 in 10.0 mi SSE 13.8 mph - N/A   Clear
7:35 PM 73.4 °F 46.4 °F 38% 29.88 in 10.0 mi SSE 13.8 mph - N/A   Clear
7:55 PM 73.4 °F 46.4 °F 38% 29.89 in 10.0 mi SSE 12.7 mph - N/A   Clear
8:15 PM 71.6 °F 46.4 °F 41% 29.90 in 10.0 mi SSE 15.0 mph - N/A   Clear
8:35 PM 69.8 °F 48.2 °F 46% 29.90 in 10.0 mi SE 13.8 mph - N/A   Clear
8:55 PM 68.0 °F 48.2 °F 49% 29.91 in 10.0 mi SSE 12.7 mph - N/A   Clear
9:15 PM 68.0 °F 50.0 °F 52% 29.91 in 10.0 mi SSE 11.5 mph - N/A   Clear
9:35 PM 68.0 °F 50.0 °F 52% 29.91 in 10.0 mi SSE 12.7 mph - N/A   Clear
9:55 PM 68.0 °F 50.0 °F 52% 29.92 in 10.0 mi SSE 12.7 mph - N/A   Clear
10:15 PM 64.4 °F 50.0 °F 59% 29.92 in 10.0 mi SE 10.4 mph - N/A   Clear
10:35 PM 64.4 °F 50.0 °F 59% 29.93 in 10.0 mi SE 10.4 mph - N/A   Clear
10:55 PM 64.4 °F 50.0 °F 59% 29.93 in 10.0 mi SSE 13.8 mph - N/A   Clear
11:15 PM 64.4 °F 50.0 °F 59% 29.93 in 10.0 mi SSE 13.8 mph - N/A   Clear
11:35 PM 62.6 °F 50.0 °F 63% 29.94 in 10.0 mi SSE 12.7 mph - N/A   Clear
11:55 PM 62.6 °F 50.0 °F 63% 29.94 in 10.0 mi SSE 10.4 mph - N/A   Clear